QPF
0.02 0.00 0.00 0.00 0.00 0.00 0.00 0.00 0.00 0.00 0.00 0.00 0.00 0.00 0.00 0.00 0.00 0.00 0.00 0.00 0.00 0.00 0.00 0.00 0.00 0.00 0.00 0.00 0.00 0.00 0.00 0.00 0.00 0.00 0.00 0.00 0.00 0.00 0.00 0.00 0.00 0.00 0.00 0.00 0.00 0.00 0.00
0.02 0.01 0.00 0.00 0.00 0.00 0.00 0.00 0.00 0.00 0.00 0.00 0.00 0.00 0.00 0.00 0.00 0.00 0.00 0.00 0.00 0.00 0.00 0.00 0.00 0.00 0.00 0.00 0.00 0.00 0.00 0.00 0.00 0.00 0.00 0.00 0.00 0.00 0.00 0.00 0.00 0.00 0.00 0.00 0.00 0.00 0.00
0.03 0.07 0.04 0.01 0.00 0.00 0.00 0.00 0.00 0.00 0.00 0.00 0.00 0.00 0.00 0.00 0.00 0.00 0.00 0.00 0.00 0.00 0.00 0.00 0.00 0.00 0.00 0.00 0.00 0.00 0.00 0.00 0.00 0.00 0.00 0.00 0.00 0.00 0.00 0.00 0.00 0.00 0.00 0.00 0.00 0.00 0.00
0.14 0.09 0.04 0.02 0.01 0.00 0.00 0.00 0.00 0.00 0.00 0.00 0.00 0.00 0.00 0.00 0.00 0.00 0.00 0.00 0.00 0.00 0.00 0.00 0.00 0.00 0.00 0.00 0.00 0.00 0.00 0.00 0.00 0.00 0.00 0.00 0.00 0.00 0.00 0.00 0.00 0.00 0.00 0.00 0.00 0.00 0.00
0.09 0.05 0.03 0.04 0.04 0.01 0.00 0.00 0.00 0.00 0.00 0.00 0.00 0.00 0.00 0.00 0.00 0.00 0.00 0.00 0.00 0.00 0.00 0.00 0.00 0.00 0.00 0.00 0.00 0.00 0.00 0.00 0.00 0.00 0.00 0.00 0.00 0.00 0.00 0.00 0.00 0.00 0.00 0.00 0.00 0.00 0.00
0.10 0.09 0.12 0.09 0.04 0.03 0.02 0.01 0.00 0.00 0.00 0.00 0.00 0.00 0.00 0.00 0.00 0.00 0.00 0.00 0.00 0.00 0.00 0.00 0.00 0.00 0.00 0.00 0.00 0.00 0.00 0.00 0.00 0.00 0.00 0.00 0.00 0.00 0.00 0.00 0.00 0.00 0.00 0.00 0.00 0.00 0.00
0.12 0.13 0.11 0.07 0.05 0.03 0.02 0.01 0.00 0.00 0.00 0.00 0.00 0.00 0.00 0.00 0.00 0.00 0.00 0.00 0.00 0.00 0.00 0.00 0.00 0.00 0.00 0.00 0.00 0.00 0.00 0.00 0.00 0.00 0.00 0.00 0.00 0.00 0.00 0.00 0.00 0.00 0.00 0.00 0.00 0.00 0.00
0.10 0.18 0.23 0.13 0.07 0.04 0.02 0.02 0.01 0.00 0.00 0.00 0.00 0.00 0.00 0.00 0.00 0.00 0.00 0.00 0.00 0.00 0.00 0.00 0.00 0.00 0.00 0.00 0.00 0.00 0.00 0.00 0.00 0.00 0.00 0.00 0.00 0.00 0.00 0.00 0.00 0.00 0.00 0.00 0.00 0.00 0.00
0.13 0.12 0.18 0.20 0.15 0.10 0.05 0.02 0.02 0.01 0.00 0.00 0.00 0.00 0.00 0.00 0.00 0.00 0.00 0.00 0.00 0.00 0.00 0.00 0.00 0.00 0.00 0.00 0.00 0.00 0.00 0.00 0.00 0.00 0.00 0.00 0.00 0.00 0.00 0.00 0.00 0.00 0.00 0.00 0.00 0.00 0.00
0.18 0.12 0.11 0.16 0.19 0.22 0.10 0.04 0.02 0.01 0.01 0.00 0.00 0.00 0.00 0.00 0.00 0.00 0.00 0.00 0.00 0.00 0.00 0.00 0.00 0.00 0.00 0.00 0.00 0.00 0.00 0.00 0.00 0.00 0.00 0.00 0.00 0.00 0.00 0.00 0.00 0.00 0.00 0.00 0.00 0.00 0.00
0.10 0.13 0.09 0.11 0.18 0.26 0.21 0.06 0.02 0.01 0.01 0.00 0.00 0.00 0.00 0.00 0.00 0.00 0.00 0.00 0.00 0.00 0.00 0.00 0.00 0.00 0.00 0.00 0.00 0.00 0.00 0.00 0.00 0.00 0.00 0.00 0.00 0.00 0.00 0.00 0.00 0.00 0.00 0.00 0.00 0.00 0.00
0.04 0.08 0.07 0.07 0.15 0.22 0.25 0.18 0.05 0.02 0.01 0.00 0.00 0.00 0.00 0.00 0.00 0.00 0.00 0.00 0.00 0.00 0.00 0.00 0.00 0.00 0.00 0.00 0.00 0.00 0.00 0.00 0.00 0.00 0.00 0.00 0.00 0.00 0.00 0.00 0.00 0.00 0.00 0.00 0.00 0.00 0.00
0.02 0.05 0.05 0.04 0.07 0.19 0.27 0.23 0.09 0.02 0.01 0.00 0.01 0.00 0.00 0.00 0.00 0.00 0.00 0.00 0.00 0.00 0.00 0.00 0.00 0.00 0.00 0.00 0.00 0.00 0.00 0.00 0.00 0.00 0.00 0.00 0.00 0.00 0.00 0.00 0.00 0.00 0.00 0.00 0.00 0.00 0.00
0.02 0.03 0.04 0.03 0.03 0.09 0.25 0.27 0.14 0.02 0.02 0.02 0.02 0.02 0.00 0.00 0.00 0.00 0.00 0.00 0.00 0.00 0.00 0.00 0.00 0.00 0.00 0.00 0.00 0.00 0.00 0.00 0.00 0.00 0.00 0.00 0.00 0.00 0.00 0.00 0.00 0.00 0.00 0.00 0.00 0.00 0.00
0.02 0.02 0.03 0.03 0.03 0.06 0.15 0.29 0.30 0.18 0.08 0.05 0.05 0.03 0.00 0.00 0.00 0.00 0.00 0.00 0.00 0.00 0.00 0.00 0.00 0.00 0.00 0.00 0.00 0.00 0.00 0.00 0.00 0.00 0.00 0.00 0.00 0.00 0.00 0.00 0.00 0.00 0.00 0.00 0.00 0.00 0.00
0.03 0.02 0.02 0.04 0.03 0.05 0.12 0.23 0.32 0.42 0.48 0.34 0.14 0.03 0.01 0.00 0.00 0.01 0.01 0.00 0.00 0.00 0.00 0.00 0.00 0.00 0.00 0.00 0.00 0.00 0.00 0.00 0.00 0.00 0.00 0.00 0.00 0.00 0.00 0.00 0.00 0.00 0.00 0.00 0.00 0.00 0.00
0.01 0.02 0.02 0.05 0.06 0.06 0.08 0.15 0.25 0.30 0.42 0.70 0.73 0.30 0.05 0.00 0.01 0.04 0.01 0.00 0.00 0.00 0.00 0.00 0.00 0.00 0.00 0.00 0.00 0.00 0.00 0.00 0.00 0.00 0.00 0.00 0.00 0.00 0.00 0.00 0.00 0.00 0.00 0.00 0.00 0.00 0.00
0.01 0.00 0.01 0.03 0.04 0.07 0.07 0.11 0.16 0.25 0.29 0.45 0.61 0.62 0.28 0.16 0.05 0.01 0.00 0.00 0.00 0.00 0.00 0.00 0.00 0.00 0.00 0.00 0.00 0.00 0.00 0.00 0.00 0.00 0.00 0.00 0.00 0.00 0.00 0.00 0.00 0.00 0.00 0.00 0.00 0.00 0.00
0.02 0.01 0.01 0.01 0.02 0.05 0.06 0.09 0.15 0.10 0.18 0.32 0.46 0.43 0.36 0.31 0.23 0.04 0.00 0.00 0.00 0.00 0.00 0.00 0.00 0.00 0.00 0.00 0.00 0.00 0.00 0.00 0.00 0.00 0.00 0.00 0.00 0.00 0.00 0.00 0.00 0.00 0.00 0.00 0.00 0.00 0.00
0.01 0.01 0.01 0.00 0.01 0.01 0.05 0.09 0.10 0.12 0.08 0.18 0.30 0.36 0.43 0.39 0.23 0.02 0.01 0.00 0.00 0.00 0.00 0.00 0.00 0.00 0.00 0.00 0.00 0.00 0.00 0.00 0.00 0.00 0.00 0.00 0.00 0.00 0.00 0.00 0.00 0.00 0.00 0.00 0.00 0.00 0.00
0.03 0.04 0.02 0.00 0.00 0.01 0.07 0.10 0.13 0.15 0.09 0.06 0.16 0.17 0.21 0.29 0.21 0.07 0.05 0.05 0.01 0.01 0.00 0.00 0.00 0.00 0.00 0.00 0.00 0.00 0.00 0.00 0.00 0.00 0.00 0.00 0.00 0.00 0.00 0.00 0.00 0.00 0.00 0.00 0.00 0.00 0.00
0.07 0.04 0.01 0.00 0.01 0.01 0.05 0.11 0.13 0.20 0.14 0.03 0.07 0.05 0.06 0.07 0.09 0.11 0.12 0.13 0.12 0.10 0.07 0.04 0.01 0.00 0.00 0.00 0.00 0.00 0.00 0.00 0.00 0.00 0.00 0.00 0.00 0.00 0.00 0.00 0.00 0.00 0.00 0.00 0.00 0.00 0.00
0.09 0.03 0.00 0.00 0.02 0.02 0.01 0.05 0.12 0.22 0.16 0.01 0.01 0.02 0.03 0.03 0.03 0.03 0.05 0.03 0.03 0.07 0.15 0.14 0.12 0.05 0.03 0.03 0.02 0.01 0.00 0.00 0.00 0.00 0.00 0.00 0.00 0.01 0.01 0.00 0.01 0.01 0.00 0.00 0.00 0.00 0.00
0.06 0.01 0.00 0.00 0.00 0.03 0.03 0.03 0.11 0.19 0.12 0.01 0.00 0.01 0.02 0.02 0.02 0.01 0.01 0.00 0.01 0.02 0.04 0.08 0.07 0.06 0.09 0.07 0.06 0.05 0.02 0.02 0.03 0.04 0.03 0.04 0.04 0.06 0.08 0.06 0.06 0.01 0.00 0.00 0.00 0.00 0.00
0.00 0.00 0.00 0.00 0.00 0.02 0.02 0.02 0.05 0.12 0.20 0.03 0.00 0.00 0.00 0.01 0.00 0.00 0.00 0.00 0.01 0.01 0.03 0.03 0.02 0.01 0.01 0.01 0.02 0.03 0.02 0.02 0.01 0.01 0.02 0.02 0.06 0.06 0.06 0.06 0.04 0.01 0.00 0.00 0.00 0.01 0.00
0.00 0.00 0.00 0.00 0.00 0.01 0.02 0.02 0.03 0.05 0.23 0.15 0.01 0.00 0.00 0.00 0.00 0.00 0.00 0.00 0.00 0.01 0.03 0.03 0.00 0.00 0.00 0.00 0.00 0.02 0.02 0.01 0.00 0.00 0.00 0.00 0.02 0.05 0.05 0.05 0.03 0.01 0.00 0.00 0.00 0.03 0.00
0.00 0.00 0.00 0.00 0.01 0.03 0.00 0.01 0.02 0.04 0.09 0.14 0.07 0.00 0.00 0.00 0.00 0.00 0.00 0.00 0.00 0.00 0.02 0.01 0.00 0.00 0.00 0.00 0.00 0.00 0.00 0.00 0.00 0.00 0.00 0.01 0.02 0.03 0.03 0.06 0.04 0.01 0.00 0.00 0.00 0.01 0.00
0.00 0.00 0.00 0.00 0.00 0.02 0.00 0.00 0.01 0.05 0.14 0.13 0.10 0.08 0.01 0.00 0.00 0.00 0.00 0.00 0.00 0.00 0.01 0.00 0.00 0.00 0.00 0.00 0.00 0.00 0.00 0.00 0.00 0.00 0.00 0.00 0.01 0.01 0.00 0.01 0.01 0.00 0.00 0.00 0.00 0.00 0.00
0.01 0.00 0.00 0.00 0.00 0.00 0.02 0.02 0.00 0.01 0.13 0.14 0.14 0.16 0.08 0.00 0.00 0.00 0.00 0.00 0.00 0.00 0.00 0.00 0.00 0.00 0.00 0.00 0.00 0.00 0.00 0.00 0.00 0.00 0.00 0.00 0.00 0.00 0.00 0.00 0.00 0.00 0.00 0.00 0.00 0.00 0.00
MSLP
1017.61 1017.47 1017.40 1017.23 1017.20 1017.25 1017.07 1017.09 1017.02 1016.98 1016.81 1016.81 1016.68 1016.72 1016.58 1016.54 1016.46 1016.31 1016.07 1015.72 1015.39 1015.06 1014.73 1014.48 1014.37 1014.24 1014.13 1013.38 1012.85 1013.38 1013.54 1013.47 1013.28 1013.31 1012.69 1012.20 1011.59 1011.04 1010.56 1010.32 1010.74 1010.53 1010.33 1010.93 1011.11 1011.38 1011.31
1016.74 1016.96 1017.04 1016.66 1016.61 1016.54 1016.59 1016.68 1016.65 1016.60 1016.53 1016.46 1016.46 1016.51 1016.46 1016.39 1016.26 1016.10 1015.91 1015.60 1015.24 1014.91 1014.64 1014.42 1014.37 1014.32 1013.79 1013.23 1013.08 1013.24 1013.35 1013.39 1013.18 1013.05 1012.63 1012.34 1011.64 1011.29 1010.86 1010.71 1010.83 1010.73 1010.79 1010.87 1011.31 1011.37 1011.36
1017.98 1017.25 1016.89 1015.90 1016.04 1015.99 1015.95 1016.10 1016.17 1016.29 1016.32 1016.20 1016.00 1016.20 1016.27 1016.24 1015.99 1015.92 1015.71 1015.35 1015.08 1014.79 1014.48 1014.37 1014.37 1014.17 1013.38 1013.00 1012.80 1013.06 1013.16 1013.19 1013.28 1013.01 1012.53 1012.57 1012.23 1011.70 1011.12 1010.90 1011.31 1011.19 1010.94 1010.87 1010.88 1011.17 1011.21
1017.61 1017.24 1016.58 1015.44 1015.49 1015.37 1015.40 1015.61 1015.70 1015.90 1016.01 1016.00 1015.69 1015.77 1015.88 1015.91 1015.81 1015.63 1015.46 1015.06 1014.77 1014.51 1014.35 1014.32 1014.35 1013.88 1012.74 1013.12 1013.04 1012.98 1012.94 1013.09 1013.22 1013.13 1012.90 1012.76 1012.48 1011.81 1011.43 1011.48 1011.09 1010.84 1010.78 1010.05 1010.07 1011.07 1011.42
1017.14 1017.08 1016.79 1016.07 1015.81 1014.68 1014.59 1014.85 1015.24 1015.39 1015.59 1015.55 1015.52 1015.56 1015.54 1015.51 1015.53 1015.39 1015.17 1014.75 1014.36 1014.26 1014.21 1014.23 1014.16 1013.51 1012.52 1013.40 1013.20 1012.92 1012.69 1012.58 1012.94 1013.02 1012.93 1012.68 1012.32 1011.61 1011.72 1010.98 1010.50 1010.20 1009.64 1009.46 1009.96 1010.72 1010.92
1016.71 1016.67 1016.38 1015.98 1015.26 1014.11 1014.01 1014.18 1014.47 1014.82 1015.08 1015.14 1015.19 1015.28 1015.35 1015.20 1015.18 1015.16 1014.81 1014.36 1014.10 1014.16 1014.06 1013.80 1013.54 1013.57 1013.04 1012.53 1012.75 1012.95 1012.92 1012.74 1012.54 1012.71 1012.66 1012.35 1011.83 1011.24 1010.87 1010.38 1009.60 1009.11 1009.24 1009.19 1009.74 1010.60 1010.80
1016.46 1016.25 1015.83 1015.60 1014.91 1014.20 1013.10 1013.35 1013.70 1014.07 1014.37 1014.66 1014.96 1014.91 1014.91 1014.89 1014.91 1014.88 1014.37 1013.87 1014.30 1014.06 1013.34 1012.28 1012.37 1012.23 1012.39 1012.92 1012.95 1013.02 1013.05 1012.70 1012.36 1012.21 1011.73 1011.86 1011.30 1010.28 1009.63 1009.72 1009.55 1009.78 1009.62 1009.30 1009.29 1010.52 1010.70
1016.09 1015.67 1015.38 1014.91 1014.65 1014.08 1012.97 1012.59 1012.84 1013.22 1013.72 1014.17 1014.46 1014.54 1014.58 1014.57 1014.66 1014.67 1014.40 1013.33 1013.40 1013.89 1012.79 1012.25 1012.60 1012.84 1012.84 1012.76 1012.62 1012.79 1013.37 1012.64 1011.98 1011.37 1011.48 1011.81 1010.60 1009.74 1009.88 1010.25 1010.19 1010.24 1010.00 1009.62 1009.53 1010.56 1010.93
1015.84 1015.29 1014.87 1014.45 1014.03 1013.77 1013.21 1012.12 1012.14 1012.51 1012.90 1013.55 1013.89 1014.17 1014.21 1014.39 1014.60 1014.52 1013.54 1013.38 1013.59 1013.56 1013.15 1012.52 1012.35 1012.39 1012.72 1012.94 1012.22 1012.20 1012.85 1012.38 1011.52 1011.09 1011.02 1010.45 1010.23 1010.42 1010.52 1010.73 1010.66 1010.43 1010.12 1009.96 1010.39 1010.83 1010.57
1015.11 1015.20 1014.81 1013.96 1013.54 1013.05 1012.96 1012.40 1011.56 1011.74 1012.20 1012.70 1013.34 1013.62 1013.95 1014.36 1014.77 1013.26 1013.11 1013.54 1013.58 1013.51 1013.01 1012.45 1012.47 1012.35 1012.74 1012.65 1012.50 1012.40 1012.46 1012.56 1011.84 1010.91 1010.84 1010.63 1010.59 1010.90 1011.07 1010.88 1011.01 1010.90 1010.71 1011.01 1011.30 1011.47 1010.57
1014.75 1014.84 1014.11 1013.73 1013.58 1012.88 1012.48 1012.20 1011.31 1011.03 1011.42 1011.99 1012.48 1012.96 1013.61 1014.06 1013.11 1012.98 1012.82 1013.24 1013.53 1013.31 1012.68 1011.64 1012.53 1013.09 1012.68 1012.40 1012.56 1012.70 1012.92 1012.42 1011.43 1011.09 1011.28 1010.61 1011.07 1011.40 1011.38 1011.30 1011.37 1011.59 1012.13 1012.12 1012.26 1011.90 1011.33
1014.35 1014.21 1013.69 1013.57 1013.41 1012.81 1012.15 1011.61 1011.17 1010.46 1010.50 1011.13 1011.85 1012.55 1013.23 1013.67 1013.26 1012.68 1012.97 1013.21 1013.47 1013.12 1011.26 1011.52 1012.10 1012.41 1012.54 1012.39 1012.32 1012.68 1012.69 1012.59 1011.96 1011.36 1011.42 1011.12 1011.92 1011.75 1011.56 1012.35 1012.26 1012.60 1012.68 1013.03 1013.13 1012.74 1011.77
1014.04 1013.60 1013.53 1013.08 1013.23 1012.54 1011.84 1011.53 1010.86 1009.70 1009.74 1010.43 1011.22 1012.06 1012.69 1012.44 1012.20 1012.80 1012.81 1013.02 1013.11 1011.28 1010.48 1010.82 1011.09 1011.59 1011.62 1011.84 1012.07 1011.88 1012.06 1011.94 1011.21 1011.04 1010.65 1011.12 1011.73 1012.17 1012.41 1012.54 1013.05 1012.58 1012.38 1012.69 1013.07 1012.83 1011.12
1013.49 1013.33 1012.98 1012.72 1012.69 1012.28 1011.66 1011.22 1010.09 1008.37 1008.93 1009.85 1010.64 1011.64 1012.02 1012.05 1012.31 1012.25 1012.61 1012.68 1011.00 1008.67 1009.16 1009.87 1010.25 1010.79 1010.85 1011.02 1011.21 1011.40 1011.16 1010.79 1010.64 1010.01 1009.36 1010.39 1011.58 1011.97 1012.02 1011.56 1011.67 1012.18 1011.69 1011.62 1011.49 1010.94 1010.28
1013.07 1012.71 1012.54 1012.26 1012.15 1011.86 1011.48 1011.03 1010.34 1008.48 1008.45 1009.42 1010.52 1011.16 1011.55 1011.69 1012.00 1012.11 1012.09 1011.32 1008.43 1008.25 1008.10 1009.17 1009.90 1009.77 1010.13 1010.41 1010.60 1010.79 1010.51 1009.70 1009.23 1009.85 1009.34 1009.27 1010.71 1012.33 1012.65 1012.48 1012.04 1012.41 1012.27 1011.56 1011.24 1010.47 1010.42
1012.41 1012.15 1012.01 1012.03 1011.71 1011.76 1011.53 1010.88 1010.29 1009.79 1008.95 1009.06 1009.95 1010.46 1010.49 1010.96 1011.62 1011.97 1011.53 1009.19 1008.22 1008.16 1008.51 1008.53 1008.03 1008.13 1008.20 1009.13 1009.84 1010.07 1009.66 1008.90 1009.11 1008.99 1009.16 1009.15 1010.41 1012.43 1013.12 1013.13 1012.88 1012.58 1012.04 1012.02 1011.64 1010.85 1009.46
1012.04 1011.89 1011.83 1011.56 1011.65 1011.42 1011.15 1010.76 1010.41 1010.19 1010.00 1010.08 1009.97 1010.05 1010.24 1010.70 1011.48 1011.79 1009.72 1008.24 1008.21 1008.64 1008.72 1008.79 1008.05 1007.88 1007.64 1008.10 1008.67 1008.91 1008.64 1009.42 1009.30 1009.43 1009.56 1009.65 1010.26 1012.68 1013.21 1012.68 1011.93 1012.81 1012.09 1011.72 1011.27 1010.62 1009.76
1011.74 1011.70 1011.47 1011.07 1011.05 1011.36 1011.04 1010.67 1010.56 1010.36 1010.18 1010.27 1009.86 1010.33 1010.87 1010.77 1010.83 1010.49 1009.44 1008.45 1008.57 1008.71 1009.07 1009.10 1009.03 1008.58 1008.36 1008.35 1008.43 1008.70 1008.77 1009.22 1010.11 1010.17 1010.17 1010.16 1010.16 1010.77 1011.53 1012.07 1012.18 1011.59 1011.04 1010.95 1010.59 1010.16 1009.99
1011.54 1011.22 1011.02 1010.93 1010.98 1011.13 1011.15 1010.79 1010.94 1010.73 1010.74 1010.37 1010.77 1011.35 1011.09 1010.71 1009.91 1009.80 1009.53 1009.44 1009.41 1009.27 1009.15 1009.30 1009.36 1009.41 1009.38 1009.09 1009.03 1009.13 1009.83 1011.13 1011.27 1010.83 1010.66 1010.77 1010.81 1010.90 1011.37 1012.49 1012.36 1011.90 1011.25 1010.94 1010.47 1010.32 1009.59
1011.20 1011.00 1011.16 1011.00 1011.16 1011.07 1011.00 1010.97 1011.01 1010.75 1010.72 1010.97 1011.36 1011.75 1011.58 1011.32 1010.98 1010.24 1010.47 1010.18 1010.36 1010.55 1010.28 1010.20 1010.09 1010.34 1010.45 1010.30 1010.15 1010.15 1010.98 1012.52 1012.75 1012.73 1012.66 1012.06 1011.08 1010.34 1010.03 1010.55 1011.05 1011.66 1011.49 1011.37 1011.25 1010.88 1010.48
1011.25 1011.34 1011.28 1010.87 1010.99 1011.14 1010.97 1011.18 1011.06 1010.82 1010.86 1011.33 1011.96 1011.89 1012.04 1012.03 1012.03 1011.47 1011.17 1011.56 1011.71 1012.39 1012.58 1012.41 1011.83 1011.34 1011.52 1011.76 1011.90 1011.89 1012.51 1013.56 1014.12 1014.24 1013.88 1013.42 1012.31 1011.65 1011.13 1010.90 1011.28 1011.81 1011.81 1011.83 1011.80 1011.72 1011.71
1011.28 1011.28 1011.17 1010.92 1011.07 1011.19 1010.80 1010.82 1011.02 1011.08 1011.05 1011.88 1011.89 1011.89 1012.25 1012.58 1012.34 1012.12 1012.05 1012.88 1013.02 1013.66 1013.90 1013.97 1013.84 1013.55 1013.52 1013.83 1014.02 1014.17 1014.19 1014.32 1014.62 1015.28 1015.21 1015.20 1014.27 1013.62 1012.73 1012.55 1012.71 1012.58 1012.55 1012.45 1012.35 1012.53 1012.62
1011.48 1011.35 1011.38 1011.44 1011.19 1010.98 1011.25 1010.68 1011.18 1011.20 1011.32 1011.61 1012.06 1012.10 1012.02 1012.79 1012.62 1012.34 1012.80 1013.28 1013.82 1014.17 1015.21 1015.07 1015.08 1014.87 1015.32 1015.97 1016.10 1016.14 1016.01 1016.04 1016.26 1016.27 1016.47 1016.44 1015.84 1015.22 1013.49 1013.89 1014.20 1014.21 1013.38 1013.24 1013.19 1013.83 1014.95
1011.87 1011.62 1011.36 1011.18 1011.07 1010.89 1011.01 1011.25 1011.44 1011.53 1011.70 1011.68 1011.97 1011.98 1012.11 1012.44 1012.53 1012.93 1013.44 1013.76 1014.12 1014.58 1014.96 1015.66 1015.58 1015.83 1016.97 1016.87 1016.99 1017.03 1017.07 1017.18 1017.23 1017.32 1017.20 1017.10 1016.72 1016.32 1015.48 1015.63 1015.50 1015.17 1015.25 1014.75 1015.02 1016.15 1016.83
1012.32 1012.00 1011.66 1011.25 1010.94 1011.00 1011.32 1011.51 1011.23 1011.56 1011.72 1011.97 1012.13 1012.02 1011.94 1012.28 1012.56 1013.23 1013.63 1013.88 1014.34 1014.90 1015.44 1015.68 1016.12 1016.45 1016.76 1016.68 1016.96 1017.25 1017.43 1017.41 1017.45 1017.56 1017.62 1017.67 1017.33 1016.95 1016.54 1016.01 1016.11 1016.29 1016.46 1016.48 1016.40 1017.63 1017.97
1012.91 1012.47 1012.08 1011.69 1011.34 1011.53 1011.66 1011.49 1011.40 1011.58 1011.67 1012.11 1012.18 1012.14 1011.73 1012.10 1012.34 1012.56 1013.27 1013.67 1013.78 1014.51 1015.52 1016.18 1016.56 1016.60 1016.60 1016.37 1016.61 1016.71 1016.89 1016.94 1017.21 1017.49 1017.63 1017.71 1017.95 1017.71 1017.14 1016.69 1016.48 1016.61 1017.11 1017.23 1017.38 1017.72 1018.33
1013.37 1012.98 1012.57 1012.10 1011.79 1011.67 1011.62 1011.70 1011.70 1011.56 1011.75 1012.24 1012.53 1012.30 1011.96 1012.37 1012.31 1012.37 1012.98 1013.24 1013.29 1014.04 1014.87 1015.86 1016.45 1016.68 1016.65 1016.48 1016.34 1016.36 1016.61 1016.68 1016.71 1016.70 1017.30 1017.48 1017.59 1017.38 1017.08 1016.94 1017.00 1017.30 1017.53 1017.79 1017.81 1018.20 1018.07
1013.75 1013.26 1012.90 1012.61 1012.25 1012.03 1011.97 1011.92 1011.90 1011.81 1011.75 1012.20 1012.47 1012.57 1012.68 1012.79 1013.08 1012.97 1013.26 1013.31 1013.74 1013.90 1014.40 1015.44 1016.23 1016.55 1016.68 1016.52 1016.41 1016.34 1016.27 1016.53 1016.54 1016.34 1016.41 1016.51 1016.67 1016.62 1016.95 1017.07 1017.08 1017.35 1017.76 1017.80 1017.66 1017.83 1018.20
1014.22 1013.67 1013.08 1012.82 1012.60 1012.30 1012.09 1012.06 1012.07 1012.24 1012.28 1012.29 1012.80 1012.96 1013.29 1013.28 1013.88 1013.92 1014.12 1014.29 1014.45 1014.38 1014.33 1015.14 1015.61 1015.72 1015.97 1016.20 1016.69 1016.63 1016.78 1016.91 1016.57 1016.29 1016.47 1016.51 1016.06 1016.16 1016.45 1016.48 1016.42 1017.03 1017.02 1017.35 1017.75 1018.15 1018.60
Thickness
5582 5587 5592 5598 5601 5607 5611 5615 5622 5629 5636 5642 5647 5651 5657 5660 5664 5669 5675 5680 5686 5692 5697 5701 5704 5706 5711 5711 5718 5718 5717 5717 5718 5716 5716 5716 5716 5720 5715 5723 5718 5716 5724 5719 5721 5718 5720
5576 5574 5578 5586 5594 5599 5605 5608 5613 5619 5626 5633 5639 5643 5649 5654 5659 5664 5669 5675 5681 5687 5692 5696 5698 5700 5706 5702 5715 5715 5715 5715 5715 5714 5714 5714 5716 5721 5717 5717 5713 5718 5717 5718 5715 5716 5717
5547 5556 5565 5577 5580 5589 5595 5601 5606 5610 5615 5623 5632 5636 5641 5646 5653 5657 5663 5670 5676 5682 5688 5690 5692 5695 5700 5708 5712 5711 5712 5712 5711 5712 5711 5712 5715 5712 5717 5710 5711 5709 5705 5711 5714 5714 5713
5531 5540 5554 5564 5570 5577 5587 5591 5596 5601 5608 5613 5623 5628 5634 5640 5645 5651 5657 5665 5671 5677 5682 5684 5686 5691 5699 5703 5706 5708 5709 5707 5708 5709 5709 5710 5712 5711 5709 5708 5707 5702 5703 5704 5718 5707 5707
5514 5523 5532 5543 5547 5566 5576 5582 5586 5591 5596 5605 5612 5618 5625 5632 5638 5645 5651 5659 5666 5671 5675 5678 5681 5685 5696 5696 5696 5703 5707 5704 5703 5704 5705 5708 5708 5707 5702 5700 5698 5703 5698 5708 5708 5706 5704
5492 5501 5514 5523 5540 5554 5562 5570 5577 5582 5587 5594 5601 5608 5614 5622 5629 5636 5644 5653 5658 5662 5667 5672 5676 5673 5685 5691 5692 5695 5699 5701 5698 5697 5696 5698 5700 5698 5701 5698 5684 5702 5700 5708 5701 5700 5695
5473 5485 5496 5508 5523 5538 5555 5561 5568 5573 5580 5585 5590 5599 5606 5613 5619 5625 5635 5646 5647 5650 5660 5672 5673 5676 5681 5682 5686 5684 5689 5692 5695 5693 5689 5691 5687 5690 5705 5706 5707 5698 5695 5698 5711 5694 5689
5459 5470 5480 5494 5504 5522 5537 5550 5559 5564 5569 5575 5582 5589 5597 5604 5610 5615 5623 5636 5644 5641 5652 5662 5661 5662 5669 5675 5675 5677 5678 5681 5685 5685 5687 5678 5682 5704 5704 5694 5690 5687 5685 5691 5705 5690 5680
5436 5454 5464 5479 5492 5506 5518 5538 5546 5555 5561 5565 5572 5578 5587 5592 5597 5605 5619 5627 5630 5634 5637 5649 5653 5657 5659 5662 5670 5674 5672 5676 5680 5681 5679 5685 5692 5689 5686 5682 5678 5682 5683 5688 5684 5683 5685
5422 5431 5444 5461 5479 5494 5504 5520 5538 5544 5552 5559 5561 5569 5575 5578 5584 5603 5610 5614 5619 5623 5620 5627 5638 5644 5647 5655 5654 5668 5668 5666 5668 5674 5677 5677 5684 5677 5675 5677 5678 5670 5687 5679 5671 5666 5666
5406 5413 5430 5448 5459 5479 5490 5505 5523 5538 5544 5550 5556 5560 5561 5568 5586 5592 5604 5603 5606 5613 5586 5630 5623 5631 5639 5644 5650 5649 5656 5656 5662 5664 5664 5668 5664 5661 5662 5670 5673 5668 5662 5662 5656 5656 5656
5393 5399 5417 5431 5445 5463 5479 5492 5508 5529 5539 5544 5547 5549 5552 5559 5569 5584 5586 5591 5594 5592 5579 5599 5613 5619 5624 5631 5637 5639 5643 5647 5654 5653 5653 5659 5656 5659 5665 5651 5656 5652 5650 5643 5640 5641 5629
5383 5393 5400 5420 5429 5450 5466 5476 5496 5521 5532 5537 5540 5539 5543 5553 5565 5567 5574 5577 5571 5574 5602 5601 5605 5613 5622 5623 5625 5633 5631 5631 5639 5630 5641 5648 5644 5646 5647 5642 5639 5646 5645 5625 5615 5608 5632
5380 5386 5393 5404 5416 5437 5455 5469 5490 5523 5527 5526 5530 5530 5534 5541 5548 5555 5559 5560 5558 5603 5609 5603 5605 5606 5610 5620 5622 5622 5627 5630 5639 5646 5650 5631 5616 5634 5643 5651 5646 5636 5646 5634 5599 5630 5645
5377 5385 5388 5395 5407 5427 5446 5462 5478 5507 5516 5516 5512 5516 5523 5534 5536 5541 5544 5540 5581 5595 5610 5597 5596 5601 5601 5610 5616 5614 5620 5632 5644 5636 5633 5636 5630 5621 5624 5630 5639 5628 5619 5642 5625 5640 5620
5376 5382 5387 5390 5399 5419 5433 5452 5469 5484 5500 5504 5505 5510 5520 5524 5525 5527 5531 5557 5579 5585 5589 5595 5605 5614 5610 5606 5605 5606 5615 5634 5629 5637 5638 5636 5620 5606 5604 5611 5613 5618 5629 5612 5613 5596 5613
5375 5379 5383 5390 5393 5409 5428 5442 5458 5471 5480 5483 5493 5504 5507 5510 5508 5509 5531 5559 5569 5571 5576 5579 5595 5596 5609 5602 5607 5606 5617 5613 5622 5620 5624 5624 5618 5587 5590 5597 5612 5597 5604 5608 5614 5614 5604
5374 5377 5381 5389 5395 5403 5423 5434 5447 5459 5469 5476 5487 5489 5490 5495 5503 5513 5529 5553 5558 5561 5563 5568 5573 5583 5588 5593 5594 5601 5605 5611 5601 5605 5600 5610 5609 5601 5596 5593 5595 5607 5612 5612 5602 5606 5606
5372 5376 5380 5385 5392 5401 5412 5423 5433 5445 5454 5466 5467 5473 5481 5486 5505 5514 5529 5533 5539 5548 5555 5557 5560 5566 5572 5576 5577 5590 5592 5576 5580 5591 5597 5598 5591 5583 5576 5574 5579 5582 5594 5598 5607 5604 5601
5372 5374 5377 5382 5387 5394 5406 5415 5421 5433 5440 5449 5457 5465 5467 5470 5474 5508 5514 5520 5522 5523 5537 5544 5549 5552 5553 5558 5568 5571 5573 5552 5556 5562 5556 5567 5587 5589 5589 5589 5582 5570 5577 5582 5581 5575 5590
5369 5371 5373 5379 5383 5390 5400 5406 5411 5420 5428 5434 5436 5446 5450 5465 5462 5472 5481 5482 5496 5489 5486 5500 5522 5536 5542 5540 5550 5554 5558 5539 5537 5536 5545 5553 5561 5574 5580 5581 5572 5565 5566 5566 5561 5568 5563
5364 5367 5369 5375 5377 5385 5393 5398 5403 5408 5416 5418 5426 5439 5439 5444 5447 5457 5463 5459 5465 5461 5466 5475 5484 5488 5495 5502 5503 5511 5516 5538 5539 5521 5524 5518 5532 5533 5541 5551 5548 5547 5552 5553 5554 5557 5560
5359 5363 5365 5367 5373 5381 5384 5394 5398 5401 5408 5411 5414 5422 5434 5430 5438 5455 5453 5453 5454 5455 5444 5452 5461 5470 5470 5463 5467 5472 5478 5481 5482 5491 5490 5489 5504 5507 5534 5529 5514 5512 5534 5538 5541 5528 5503
5354 5357 5362 5366 5369 5375 5379 5386 5390 5394 5397 5404 5408 5414 5421 5425 5432 5435 5434 5438 5440 5443 5445 5439 5447 5453 5443 5446 5450 5455 5458 5459 5461 5462 5467 5474 5480 5481 5496 5482 5496 5490 5488 5501 5498 5475 5472
5350 5353 5357 5362 5367 5370 5373 5377 5384 5388 5392 5395 5400 5408 5414 5415 5423 5421 5424 5426 5426 5427 5429 5432 5434 5437 5438 5443 5446 5448 5450 5452 5451 5450 5450 5452 5459 5467 5473 5478 5465 5458 5463 5465 5469 5449 5453
5345 5348 5352 5356 5360 5362 5365 5371 5377 5382 5388 5389 5393 5398 5410 5409 5413 5423 5420 5422 5422 5420 5419 5416 5421 5426 5431 5439 5437 5442 5448 5449 5447 5442 5442 5443 5434 5441 5447 5453 5464 5450 5447 5448 5443 5443 5433
5340 5343 5346 5350 5354 5356 5359 5364 5370 5376 5381 5383 5384 5390 5401 5394 5413 5419 5414 5413 5424 5419 5413 5409 5408 5410 5417 5420 5429 5431 5431 5441 5438 5441 5430 5429 5426 5429 5431 5429 5428 5430 5429 5427 5424 5427 5428
5335 5339 5341 5344 5347 5350 5352 5357 5362 5369 5375 5378 5379 5381 5388 5388 5395 5403 5403 5408 5407 5412 5409 5406 5402 5397 5399 5410 5418 5420 5425 5425 5424 5430 5429 5431 5426 5425 5416 5409 5412 5413 5407 5408 5413 5411 5408
5326 5330 5335 5338 5340 5343 5346 5350 5357 5360 5366 5371 5372 5374 5374 5380 5380 5384 5386 5389 5393 5398 5402 5398 5396 5399 5402 5402 5397 5402 5401 5396 5410 5414 5408 5409 5422 5420 5418 5411 5408 5397 5405 5403 5398 5394 5389